TimeCST,TemperatureF,Dew PointF,Humidity,Sea Level PressureIn,VisibilityMPH,Wind Direction,Wind SpeedMPH,Gust SpeedMPH,PrecipitationIn,Events,Conditions,WindDirDegrees,DateUTC
12:56 AM,32.9,32.0,96,30.05,9.0,NE,4.6,-,N/A,,Partly Cloudy,40,2013-02-14 06:56:00
1:47 AM,30.2,30.2,100,30.01,5.0,Calm,Calm,-,N/A,,Mostly Cloudy,0,2013-02-14 07:47:00
1:56 AM,30.0,30.0,100,30.05,5.0,Calm,Calm,-,N/A,,Mostly Cloudy,0,2013-02-14 07:56:00
2:22 AM,28.4,28.4,100,30.01,4.0,Calm,Calm,-,N/A,,Partly Cloudy,0,2013-02-14 08:22:00
2:56 AM,27.1,27.1,100,30.05,4.0,Calm,Calm,-,N/A,,Mostly Cloudy,0,2013-02-14 08:56:00
3:47 AM,28.4,28.4,100,30.01,7.0,Calm,Calm,-,N/A,,Scattered Clouds,0,2013-02-14 09:47:00
3:56 AM,27.1,27.1,100,30.05,6.0,Calm,Calm,-,N/A,,Partly Cloudy,0,2013-02-14 09:56:00
4:56 AM,27.1,27.1,100,30.05,6.0,Calm,Calm,-,N/A,,Clear,0,2013-02-14 10:56:00
5:33 AM,30.2,30.2,100,30.01,6.0,Calm,Calm,-,N/A,,Mostly Cloudy,0,2013-02-14 11:33:00
5:56 AM,32.0,31.1,96,30.04,8.0,Calm,Calm,-,N/A,,Mostly Cloudy,0,2013-02-14 11:56:00
6:56 AM,32.9,31.1,93,30.05,9.0,Calm,Calm,-,N/A,,Mostly Cloudy,0,2013-02-14 12:56:00
7:06 AM,32.0,30.2,93,30.01,9.0,Calm,Calm,-,N/A,,Mostly Cloudy,0,2013-02-14 13:06:00
7:56 AM,36.0,32.9,89,30.06,10.0,North,5.8,-,N/A,,Partly Cloudy,10,2013-02-14 13:56:00
8:56 AM,41.9,36.0,79,30.07,10.0,NE,13.8,-,N/A,,Clear,40,2013-02-14 14:56:00
9:56 AM,45.0,37.9,76,30.06,10.0,NE,12.7,-,N/A,,Clear,40,2013-02-14 15:56:00
10:56 AM,47.8,37.9,69,30.04,10.0,NE,12.7,-,N/A,,Clear,40,2013-02-14 16:56:00
11:56 AM,50.9,34.9,54,30.02,10.0,NE,13.8,-,N/A,,Clear,50,2013-02-14 17:56:00
12:56 PM,52.9,34.9,50,30.00,10.0,NNE,18.4,21.9,N/A,,Partly Cloudy,30,2013-02-14 18:56:00
1:56 PM,54.9,32.9,43,29.99,10.0,NE,16.1,-,N/A,,Clear,50,2013-02-14 19:56:00
2:56 PM,55.9,34.9,45,29.99,10.0,ENE,10.4,-,N/A,,Clear,60,2013-02-14 20:56:00
3:56 PM,54.9,34.0,45,30.00,10.0,ENE,9.2,-,N/A,,Clear,60,2013-02-14 21:56:00
4:56 PM,52.0,34.0,50,30.02,10.0,NE,8.1,-,N/A,,Partly Cloudy,50,2013-02-14 22:56:00
5:56 PM,39.9,32.0,73,30.04,10.0,Calm,Calm,-,N/A,,Clear,0,2013-02-14 23:56:00
6:56 PM,34.0,30.0,85,30.04,10.0,Calm,Calm,-,N/A,,Clear,0,2013-02-15 00:56:00
7:56 PM,32.0,30.0,92,30.05,10.0,Calm,Calm,-,N/A,,Clear,0,2013-02-15 01:56:00
8:56 PM,29.1,28.0,96,30.06,10.0,Calm,Calm,-,N/A,,Clear,0,2013-02-15 02:56:00
9:56 PM,30.0,28.0,92,30.06,10.0,Calm,Calm,-,N/A,,Partly Cloudy,0,2013-02-15 03:56:00
10:56 PM,29.1,28.0,96,30.06,10.0,Calm,Calm,-,N/A,,Clear,0,2013-02-15 04:56:00
11:56 PM,29.1,28.0,96,30.06,10.0,Calm,Calm,-,N/A,,Partly Cloudy,0,2013-02-15 05:56:00